[[{"header":{"parameterUnit":"m.s-1","parameterCategory":1,"la1":30.2991,"la2":30.254,"lo1":-89.0895,"lo2":-89.0444,"dy":0.0017,"dx":0.0017,"nx":28,"ny":28,"refTime":"2024-05-28T21:00:00:Z","depth":0,"parameterNumber":2,"parameterNumberName":"U-component_of_WINDS"},"data":[0,0,0,0,0,0,0,0,0,0,0,0,0,0,0,0,0,0,0,0,0,0,0,0,0,0,0,0,0,0,0,0,0,0,0,0,0,0,0,0,0,0,0,0,0,0,0,0,0,0,0,0,0,0,0,0,0,0,2.6259,2.626,0,2.6365,2.6366,2.6367,2.6389,2.6388,2.6387,2.6386,2.6491,2.6495,2.6498,0,0,0,0,0,0,0,0,0,0,0,0,0,2.6072,2.6076,2.6259,2.626,2.6262,2.6365,2.6366,2.6368,2.6389,2.6388,2.6387,2.6386,2.649,2.6494,2.6499,0,0,0,0,0,0,0,0,0,0,0,0,0,2.6163,2.6077,2.6259,2.6285,2.6288,2.6364,2.6366,2.6368,2.6389,2.6388,2.6387,2.6386,2.6489,2.6494,2.6499,2.6556,0,0,2.6515,2.6518,0,0,0,0,0,0,0,0,2.6158,2.617,2.628,2.6283,2.6287,2.6363,2.6339,2.6431,2.6389,2.6351,2.6386,2.6385,2.6449,2.6458,2.648,2.6561,2.6565,2.6516,2.6519,2.6521,2.6523,0,0,0,0,0,0,0,2.6152,2.6166,2.6301,2.6281,2.6286,2.629,2.6302,2.6356,2.6405,2.6354,2.6356,2.6368,2.6451,2.6475,2.6483,2.6567,2.6516,2.652,2.6524,2.6526,2.6698,2.6699,0,0,0,0,0,0,2.6141,2.616,2.6297,2.6304,2.6218,2.6295,2.6308,2.6339,2.6405,2.6414,2.6369,2.6369,2.6466,2.6476,2.6486,2.6556,2.6521,2.6526,2.6529,2.6697,2.6698,2.67,0,0,0,0,0,0,2.6137,2.6153,2.6293,2.6233,2.6251,2.6299,2.6335,2.6342,2.6366,2.6416,2.6425,2.6385,2.6466,2.6479,2.6538,2.656,2.6529,2.6534,2.6695,2.6697,2.6699,2.6696,0,0,0,0,0,0,2.6132,2.6152,2.6174,2.6233,2.6254,2.6344,2.6336,2.6345,2.6376,2.6376,2.6433,2.6441,2.6466,2.653,2.6544,2.6567,2.6538,2.6693,2.6696,2.6698,2.6694,2.6697,2.67,0,0,0,0,0,2.6125,2.6169,2.6176,2.6192,2.6284,2.6345,2.6357,2.6386,2.6377,2.64,2.6432,2.644,2.6556,2.6536,2.6551,2.6576,2.6692,2.6695,2.6698,2.6693,2.6697,2.67,0,0,0,0,0,0,2.611,2.6177,2.6185,2.6249,2.6292,2.6349,2.6378,2.6389,2.6434,2.6432,2.6465,2.6477,2.6535,2.6562,2.6539,2.6634,2.6623,2.663,2.6614,2.6618,2.6621,2.6613,2.6542,0,0,0,0,0,2.6115,2.616,2.6216,2.6267,2.6288,2.633,2.6358,2.6376,2.6421,2.6438,2.6475,2.6517,2.6563,2.6592,2.6637,2.6699,2.6711,2.6723,2.6726,2.6729,2.6733,2.6766,2.6772,2.671,2.671,2.671,0,0,2.6123,2.6166,2.6193,2.6265,2.63,2.6346,2.6344,2.6393,2.6426,2.6445,2.6503,2.6532,2.6581,2.6641,2.6669,2.6665,2.6753,2.6733,2.6734,2.6737,2.677,2.6776,2.6781,2.6712,2.6712,2.6711,0,0,2.6163,2.62,2.6247,2.6282,2.6336,2.6363,2.6374,2.643,2.645,2.6509,2.6524,2.6564,2.6643,2.6677,2.6705,2.6757,2.6766,2.6771,2.6787,2.6819,2.6824,2.6828,2.6846,2.6852,2.6776,2.6776,2.6776,0,2.6167,2.6237,2.6269,2.6317,2.6348,2.6368,2.6415,2.6447,2.6512,2.6532,2.6527,2.6626,2.6661,2.6729,2.6742,2.6764,2.6776,2.6764,2.6821,2.6826,2.683,2.6847,2.6854,2.6776,2.6776,2.6776,2.6776,0,2.6239,2.6288,2.6318,2.6382,2.6416,2.6463,2.65,2.6532,2.6547,2.6575,2.6634,2.6677,2.673,2.6748,2.6763,2.6818,2.6814,2.6815,2.6804,2.6836,2.6852,2.6859,2.6777,2.6776,2.6776,2.6776,0,0,2.627,2.6351,2.6362,2.6391,2.6452,2.6489,2.6536,2.659,2.6615,2.666,2.6699,2.6765,2.6766,2.6798,2.6817,2.6846,2.6883,2.6843,2.6844,2.6847,2.6944,2.6942,2.6949,2.689,2.6891,2.6892,2.694,0,2.6316,2.6403,2.6432,2.6503,2.6548,2.6568,2.6609,2.665,2.6677,2.6718,2.6748,2.6794,2.6793,2.6811,2.6841,2.6872,2.6903,2.6869,2.6925,2.6926,2.691,2.6958,2.6956,2.6999,2.6946,2.6948,2.6948,0,2.638,2.6427,2.6502,2.6557,2.6577,2.6613,2.6665,2.6704,2.6751,2.6768,2.6804,2.6821,2.687,2.6858,2.6925,2.6902,2.6927,2.6946,2.6948,2.6953,2.6938,2.6963,2.7014,2.7019,2.6959,2.6958,2.6957,0,2.6394,2.6475,2.6531,2.6555,2.6621,2.6646,2.6674,2.672,2.675,2.6795,2.6814,2.6864,2.689,2.6927,2.6957,2.6946,2.7021,2.7012,2.7036,2.7035,2.705,2.7048,2.7103,2.7068,2.7068,2.7068,2.7068,0,2.644,2.6485,2.6538,2.6571,2.6622,2.6656,2.6705,2.6734,2.6775,2.6814,2.6835,2.6871,2.6909,2.6949,2.6973,2.7024,2.7037,2.7051,2.7056,2.7048,2.7046,2.7064,2.7061,2.707,2.7069,2.7069,2.7069,0,2.6463,2.65,2.6562,2.662,2.6635,2.667,2.6719,2.6752,2.6781,2.683,2.6843,2.6887,2.6936,2.697,2.7033,2.7049,2.7103,2.7109,2.7088,2.709,2.7112,2.7109,2.7179,2.7189,2.7148,2.7149,2.7149,0,2.649,2.6525,2.6587,2.6615,2.6644,2.669,2.6721,2.6755,2.6787,2.6843,2.6869,2.6919,2.6961,2.7038,2.7075,2.7123,2.7129,2.7151,2.7136,2.7127,2.7128,2.7125,2.7128,2.7152,2.7152,2.7153,2.7153,0,2.6532,2.6549,2.6594,2.6646,2.6683,2.6724,2.6766,2.6788,2.683,2.6864,2.6915,2.6947,2.7012,2.7061,2.7113,2.7141,2.7153,2.7157,2.7165,2.7156,2.7142,2.7149,2.7092,2.7155,2.7155,2.7155,2.7155,2.7155,2.6557,2.6589,2.6638,2.6687,2.6723,2.6761,2.6795,2.6828,2.6872,2.6928,2.6945,2.6998,2.7043,2.7114,2.7142,2.7183,2.7181,2.7193,2.7196,2.7198,2.7197,2.7137,2.7193,2.7193,2.7193,2.7193,2.7193,0,2.6599,2.6632,2.6677,2.6736,2.6774,2.6785,2.6832,2.6863,2.6909,2.6951,2.6992,2.705,2.7098,2.714,2.7189,2.7214,2.7221,2.7225,2.7223,2.7229,2.7196,2.7184,2.7219,2.7219,2.7219,2.7219,2.7219,2.7219,2.6626,2.668,2.6703,2.6775,2.6807,2.686,2.6885,2.6921,2.6954,2.7019,2.7059,2.7086,2.7127,2.718,2.7225,2.7235,2.7252,2.7255,2.7267,2.7235,2.7231,2.7228,2.7217,2.7259,2.7259,2.7296,2.7297,2.7297]},{"header":{"parameterUnit":"m.s-1","parameterCategory":1,"la1":30.2991,"la2":30.254,"lo1":-89.0895,"lo2":-89.0444,"dy":0.0017,"dx":0.0017,"nx":28,"ny":28,"refTime":"2024-05-28T21:00:00:Z","depth":0,"parameterNumber":3,"parameterNumberName":"V-component_of_WINDS"},"data":[0,0,0,0,0,0,0,0,0,0,0,0,0,0,0,0,0,0,0,0,0,0,0,0,0,0,0,0,0,0,0,0,0,0,0,0,0,0,0,0,0,0,0,0,0,0,0,0,0,0,0,0,0,0,0,0,0,0,2.7758,2.7757,0,2.7705,2.7704,2.7703,2.7677,2.7677,2.7677,2.7677,2.7616,2.7614,2.7613,0,0,0,0,0,0,0,0,0,0,0,0,0,2.783,2.7829,2.7758,2.7757,2.7756,2.7705,2.7704,2.7703,2.7677,2.7677,2.7677,2.7677,2.7616,2.7614,2.7612,0,0,0,0,0,0,0,0,0,0,0,0,0,2.779,2.7828,2.7758,2.7737,2.7735,2.7705,2.7704,2.7703,2.7677,2.7677,2.7677,2.7677,2.7617,2.7615,2.7612,2.7597,0,0,2.7605,2.7604,0,0,0,0,0,0,0,0,2.7792,2.7787,2.7741,2.7738,2.7736,2.7697,2.7707,2.7667,2.7677,2.7698,2.7677,2.7677,2.7643,2.7638,2.7628,2.7594,2.7592,2.7605,2.7603,2.7602,2.7601,0,0,0,0,0,0,0,2.7795,2.7789,2.7736,2.774,2.7737,2.7728,2.7723,2.77,2.7671,2.7696,2.7694,2.7689,2.7641,2.763,2.7626,2.7591,2.7605,2.7603,2.7601,2.76,2.7543,2.7543,0,0,0,0,0,0,2.7802,2.7792,2.7738,2.7735,2.7765,2.7727,2.7721,2.771,2.7671,2.7665,2.7689,2.7688,2.7634,2.7629,2.7624,2.7604,2.7602,2.76,2.7598,2.7543,2.7543,2.7543,0,0,0,0,0,0,2.7803,2.7797,2.774,2.7763,2.7755,2.7726,2.7713,2.7708,2.7698,2.7666,2.766,2.7684,2.7634,2.7627,2.7605,2.7602,2.7599,2.7597,2.7543,2.7543,2.7543,2.7565,0,0,0,0,0,0,2.7806,2.7798,2.7793,2.7763,2.7754,2.7724,2.7713,2.7707,2.7694,2.7692,2.7659,2.7653,2.7634,2.7608,2.7602,2.7598,2.7595,2.7543,2.7543,2.7543,2.7564,2.7565,2.7566,0,0,0,0,0,2.7808,2.78,2.7793,2.7787,2.7748,2.7724,2.7718,2.7698,2.7694,2.7689,2.7668,2.7654,2.7603,2.7606,2.7599,2.7594,2.7543,2.7543,2.7543,2.7563,2.7565,2.7566,0,0,0,0,0,0,2.7829,2.7796,2.7788,2.777,2.775,2.7719,2.7711,2.77,2.7679,2.7678,2.7651,2.7644,2.7623,2.7606,2.7611,2.7578,2.7572,2.757,2.759,2.7591,2.7592,2.7596,2.7593,0,0,0,0,0,2.7832,2.7817,2.7788,2.7775,2.7766,2.774,2.7729,2.7715,2.7693,2.7683,2.7661,2.7638,2.7616,2.7603,2.7581,2.7562,2.7553,2.7555,2.7556,2.7557,2.7556,2.7544,2.7544,2.7542,2.7542,2.7542,0,0,2.7836,2.7817,2.7808,2.7778,2.7761,2.7745,2.7733,2.7716,2.7703,2.768,2.7658,2.7641,2.7613,2.7592,2.7581,2.7577,2.7555,2.7557,2.7558,2.7556,2.7544,2.7544,2.7544,2.7542,2.7542,2.7542,0,0,2.7837,2.7821,2.7808,2.7792,2.7768,2.7751,2.7748,2.7719,2.7708,2.7686,2.7668,2.7651,2.7615,2.7596,2.7582,2.7577,2.7563,2.757,2.7576,2.7565,2.7565,2.7565,2.7563,2.7562,2.7569,2.7569,2.7569,0,2.7845,2.7822,2.7803,2.7787,2.7774,2.7755,2.7742,2.7726,2.7695,2.7685,2.7682,2.7637,2.7617,2.7591,2.759,2.7579,2.7574,2.7573,2.7567,2.7566,2.7566,2.7564,2.7563,2.757,2.757,2.757,2.757,0,2.7834,2.7817,2.781,2.7783,2.7769,2.7755,2.7732,2.772,2.7707,2.7691,2.7668,2.7644,2.7617,2.761,2.7597,2.7582,2.7581,2.7572,2.7565,2.7568,2.7565,2.7564,2.7571,2.7571,2.7571,2.7571,0,0,2.7844,2.7809,2.7806,2.7794,2.7766,2.7752,2.7736,2.7712,2.7702,2.7681,2.7667,2.7637,2.763,2.7614,2.7598,2.7588,2.7585,2.7581,2.758,2.7582,2.7568,2.7574,2.7573,2.7577,2.7576,2.7576,2.757,0,2.7841,2.7814,2.7797,2.7776,2.7761,2.7743,2.7729,2.7709,2.7693,2.7676,2.7657,2.7637,2.7629,2.7619,2.7609,2.7588,2.7582,2.7588,2.7561,2.756,2.7568,2.7572,2.7578,2.7574,2.7569,2.7568,2.7568,0,2.7833,2.7815,2.7794,2.7768,2.7761,2.7749,2.7726,2.7711,2.7688,2.7677,2.766,2.7644,2.7625,2.762,2.7593,2.7598,2.7585,2.7573,2.7573,2.7569,2.7564,2.7568,2.7572,2.7571,2.7566,2.7567,2.7567,0,2.7843,2.7814,2.7797,2.7787,2.7757,2.7749,2.7735,2.7712,2.77,2.7679,2.767,2.7647,2.7634,2.7615,2.7593,2.7592,2.7568,2.7561,2.7557,2.7557,2.7552,2.7553,2.7554,2.7545,2.7545,2.7545,2.7545,0,2.7841,2.7828,2.7802,2.7792,2.7777,2.7756,2.7741,2.7726,2.7706,2.7691,2.7673,2.7659,2.7631,2.7613,2.7596,2.7576,2.757,2.7559,2.7555,2.7561,2.7562,2.7552,2.7552,2.7545,2.7545,2.7545,2.7545,0,2.785,2.7832,2.7812,2.7786,2.7779,2.7769,2.7745,2.7734,2.7718,2.7699,2.7693,2.7667,2.7645,2.7622,2.7591,2.7579,2.756,2.7553,2.7569,2.7566,2.7563,2.7564,2.7557,2.7555,2.7548,2.7548,2.7548,0,2.7849,2.784,2.7813,2.7803,2.7791,2.7775,2.7762,2.7741,2.7729,2.7702,2.7694,2.7671,2.7652,2.7617,2.7594,2.7571,2.7563,2.7563,2.7559,2.7566,2.7563,2.7564,2.7562,2.7564,2.7564,2.7564,2.7564,0,2.7851,2.7843,2.7827,2.7807,2.7794,2.7777,2.7759,2.7751,2.7727,2.7713,2.7692,2.7678,2.7648,2.7625,2.7599,2.7583,2.7569,2.7566,2.7563,2.7569,2.7578,2.7573,2.7571,2.7566,2.7565,2.7565,2.7565,2.7565,2.7855,2.7845,2.7826,2.7808,2.7793,2.7778,2.7766,2.7749,2.7732,2.7708,2.7696,2.7675,2.7651,2.7615,2.76,2.7581,2.7577,2.7574,2.7573,2.7572,2.7574,2.7582,2.7576,2.7576,2.7576,2.7576,2.7576,0,2.7855,2.7842,2.7826,2.7803,2.779,2.7781,2.7761,2.7749,2.7731,2.7712,2.7694,2.767,2.7648,2.7624,2.76,2.759,2.7583,2.7584,2.7584,2.7581,2.7579,2.7584,2.759,2.759,2.759,2.759,2.759,2.759,2.7854,2.7838,2.7827,2.7803,2.7789,2.7771,2.776,2.7745,2.7729,2.7704,2.7687,2.7672,2.765,2.7625,2.7604,2.7597,2.7589,2.7592,2.7583,2.7582,2.7581,2.758,2.7584,2.759,2.759,2.7586,2.7586,2.7586]}]]